EW8138 Weather Reports


time (UTC)temp
C
wind
direction
speed
KPH
gust
KPH
rain 1hr
cm
rain 24hr
cm
rain mn
cm
humidity
%
barometer
mb
20260508174552 15 211 0.0 16.1 0.00 0.03 0.03 62 1010.7
20260508173045 14 242 1.6 17.7 0.00 0.03 0.03 66 1011.2
20260508171542 13 231 0.0 1.6 0.00 0.03 0.03 67 1011.7
20260508170037 12 240 0.0 0.0 0.00 0.03 0.03 69 1012.1
20260508164533 12 298 0.0 0.0 0.00 0.03 0.03 69 1012.2
20260508163032 12 248 0.0 0.0 0.00 0.03 0.03 68 1012.2
20260508161531 12 235 0.0 0.0 0.00 0.03 0.03 69 1012.2
20260508160033 12 225 0.0 11.3 0.00 0.03 0.03 69 1012.2
20260508154544 12 243 0.0 1.6 0.00 0.03 0.03 69 1012.1
20260508153029 12 230 0.0 9.7 0.00 0.03 0.03 69 1012.1
20260508151532 12 236 0.0 11.3 0.00 0.03 0.03 68 1012.1
20260508150034 12 232 0.0 0.0 0.00 0.03 0.03 67 1012.0
20260508144526 12 308 0.0 6.4 0.00 0.03 0.03 65 1012.0
20260508143023 12 248 0.0 1.6 0.00 0.03 0.03 65 1012.2
20260508141523 12 236 0.0 4.8 0.00 0.03 0.03 68 1012.1
20260508140016 12 289 0.0 4.8 0.00 0.03 0.03 68 1012.1
20260508134514 12 233 0.0 0.0 0.00 0.03 0.03 69 1012.1
20260508133009 11 227 0.0 1.6 0.00 0.03 0.03 71 1012.1
20260508131505 11 228 0.0 1.6 0.00 0.03 0.03 71 1012.2
20260508130002 10 225 0.0 3.2 0.00 0.03 0.03 72 1012.1
20260508124501 10 230 0.0 3.2 0.00 0.03 0.03 72 1012.1
20260508123057 10 219 0.0 12.9 0.00 0.03 0.03 73 1012.0
20260508121554 9 231 0.0 6.4 0.00 0.03 0.03 74 1012.1
20260508120051 8 227 0.0 0.0 0.00 0.03 0.03 76 1011.9
20260508114548 8 225 0.0 0.0 0.00 0.03 0.03 77 1011.8
20260508113045 7 217 0.0 0.0 0.00 0.03 0.03 80 1011.6
20260508111541 7 219 0.0 0.0 0.00 0.03 0.03 80 1011.6
20260508110036 7 225 0.0 0.0 0.00 0.03 0.03 81 1011.6
20260508104534 6 217 0.0 0.0 0.00 0.03 0.03 82 1011.6
20260508103035 6 215 0.0 0.0 0.00 0.03 0.03 83 1011.5
20260508101534 6 217 0.0 0.0 0.00 0.03 0.03 84 1011.4
20260508100030 6 217 0.0 0.0 0.00 0.03 0.03 84 1011.2
20260508094530 6 218 0.0 0.0 0.00 0.03 0.03 85 1011.3
20260508093028 6 223 0.0 0.0 0.00 0.03 0.03 86 1011.4
20260508091526 6 224 0.0 0.0 0.00 0.03 0.03 88 1011.5
20260508090128 6 243 0.0 0.0 0.00 0.03 0.03 89 1011.5
20260508084524 6 245 0.0 0.0 0.00 0.03 0.03 89 1011.6
20260508083024 6 245 0.0 0.0 0.00 0.03 0.03 89 1011.6
20260508081523 6 246 0.0 0.0 0.00 0.03 0.03 89 1011.7
20260508080019 7 271 0.0 0.0 0.00 0.03 0.03 88 1011.8
20260508074523 7 271 0.0 0.0 0.00 0.03 0.03 88 1011.9
20260508073014 7 360 0.0 0.0 0.00 0.03 0.03 88 1012.0
20260508071511 8 360 0.0 0.0 0.00 0.03 0.03 88 1012.3
20260508070012 8 242 0.0 0.0 0.00 0.03 0.03 88 1012.4
20260508064510 8 236 0.0 0.0 0.00 0.03 0.03 86 1012.1
20260508063009 8 236 0.0 0.0 0.03 0.03 0.03 85 1012.5
20260508061505 8 236 0.0 0.0 0.03 0.03 0.03 80 1013.0
20260508060007 8 236 0.0 0.0 0.03 0.03 0.03 79 1013.2
20260508054504 9 236 0.0 0.0 0.03 0.03 0.03 77 1013.0
20260508053003 8 261 0.0 6.4 0.00 0.00 0.00 75 1013.4
20260508051614 8 220 0.0 0.0 0.00 0.00 0.00 80 1013.5
20260508050057 8 220 0.0 0.0 0.00 0.00 0.00 77 1012.6
20260508044557 8 220 0.0 0.0 0.00 0.00 0.00 80 1012.3
20260508043056 8 252 0.0 0.0 0.00 0.00 0.00 80 1012.4
20260508041555 8 288 0.0 0.0 0.00 0.00 0.00 80 1012.4
20260508040056 8 289 0.0 0.0 0.00 0.00 0.00 77 1012.6
20260508034552 8 289 0.0 0.0 0.00 0.00 0.00 73 1012.7
20260508033057 9 289 0.0 0.0 0.00 0.00 0.00 71 1012.7
20260508031556 9 289 0.0 0.0 0.00 0.00 0.00 69 1012.7
20260508030058 10 289 0.0 0.0 0.00 0.00 0.00 64 1012.8
20260508024614 10 289 0.0 0.0 0.00 0.00 0.00 61 1013.1
20260508023048 10 289 0.0 0.0 0.00 0.00 0.00 59 1012.7
20260508021551 10 289 0.0 0.0 0.00 0.00 0.00 59 1012.7
20260508020053 11 289 0.0 0.0 0.00 0.00 0.00 56 1012.6
20260508014552 11 289 0.0 0.0 0.00 0.00 0.00 54 1012.7
20260508013046 11 290 0.0 0.0 0.00 0.00 0.00 53 1012.6
20260508011548 11 316 0.0 0.0 0.00 0.00 0.00 51 1012.5
20260508010052 11 286 0.0 3.2 0.00 0.00 0.00 49 1012.5
20260508004552 11 315 0.0 0.0 0.00 0.00 0.00 47 1012.5
20260508003044 12 235 0.0 3.2 0.00 0.00 0.00 48 1012.3
20260508001547 12 263 0.0 0.0 0.00 0.00 0.00 48 1012.0
20260508000043 12 281 0.0 0.0 0.00 0.00 0.00 46 1011.9
20260507234542 12 267 0.0 0.0 0.00 0.00 0.00 45 1011.8
20260507233042 13 279 0.0 0.0 0.00 0.00 0.00 43 1011.7
20260507231544 13 267 0.0 0.0 0.00 0.00 0.00 44 1011.8
20260507230055 12 302 0.0 0.0 0.00 0.00 0.00 44 1011.8
20260507224541 13 274 0.0 0.0 0.00 0.00 0.00 43 1012.1
20260507223040 13 310 0.0 12.9 0.00 0.00 0.00 41 1012.2
20260507221543 14 288 0.0 8.0 0.00 0.00 0.00 41 1012.1
20260507220037 14 289 0.0 9.7 0.00 0.00 0.00 43 1012.1
20260507214537 12 302 0.0 16.1 0.00 0.00 0.00 44 1012.0
20260507213037 13 290 0.0 1.6 0.00 0.00 0.00 45 1011.9
20260507211535 13 5 1.6 14.5 0.00 0.00 0.00 44 1011.9
20260507210039 13 290 0.0 12.9 0.00 0.00 0.00 44 1011.9
20260507204534 13 46 0.0 12.9 0.00 0.00 0.00 43 1011.8
20260507203103 14 255 0.0 22.5 0.00 0.00 0.00 43 1011.9
20260507201533 13 305 1.6 19.3 0.00 0.00 0.00 42 1012.0
20260507200031 13 17 0.0 25.7 0.00 0.00 0.00 44 1011.9
20260507194530 13 269 0.0 12.9 0.00 0.00 0.00 47 1011.9
20260507193026 12 342 3.2 16.1 0.00 0.00 0.00 50 1012.2
20260507191527 13 311 3.2 19.3 0.00 0.00 0.00 47 1012.3
20260507190025 13 277 0.0 16.1 0.00 0.00 0.00 49 1012.4
20260507184524 13 295 0.0 22.5 0.00 0.00 0.00 49 1012.5
20260507183022 13 250 0.0 19.3 0.00 0.00 0.00 51 1012.5
20260507181519 12 304 1.6 17.7 0.00 0.00 0.00 51 1012.5
20260507180022 12 269 1.6 19.3 0.00 0.00 0.00 53 1012.7